This is the latest recevied weather packets stored in our database for station/object ZR6G-15. If no packets are shown the sender has not sent any weather packets the latest 10 day(s).
| Time | Temp. | Humidity | Pressure | Rain* | Wind** | Luminosity | Snow |
|---|---|---|---|---|---|---|---|
| 1777647108 | 17.78° C | 26% | 1010.9 hPa | - | - | - | - |
| 1777646503 | 17.78° C | 27% | 1010.7 hPa | - | - | - | - |
| 1777645898 | 17.78° C | 25% | 1010.6 hPa | - | - | - | - |
| 1777645293 | 17.78° C | 25% | 1010.5 hPa | - | - | - | - |
| 1777644689 | 18.89° C | 24% | 1010.3 hPa | - | - | - | - |
| 1777644084 | 17.78° C | 26% | 1010.3 hPa | - | - | - | - |
| 1777643479 | 17.78° C | 25% | 1010.3 hPa | - | - | - | - |
| 1777642875 | 18.89° C | 23% | 1010 hPa | - | - | - | - |
| 1777642275 | 18.89° C | 21% | 1009.9 hPa | - | - | - | - |
| 1777641666 | 18.89° C | 20% | 1009.5 hPa | - | - | - | - |
| 1777641061 | 18.89° C | 21% | 1009.5 hPa | - | - | - | - |
| 1777640456 | 18.89° C | 20% | 1009.4 hPa | - | - | - | - |
| 1777639852 | 18.89° C | 21% | 1009.3 hPa | - | - | - | - |
| 1777639247 | 18.89° C | 20% | 1009.1 hPa | - | - | - | - |
| 1777638643 | 20° C | 20% | 1009 hPa | - | - | - | - |
| 1777638038 | 18.89° C | 25% | 1009.2 hPa | - | - | - | - |
| 1777637432 | 18.89° C | 26% | 1009.2 hPa | - | - | - | - |
| 1777636828 | 20° C | 26% | 1008.9 hPa | - | - | - | - |
| 1777636223 | 20° C | 21% | 1008.8 hPa | - | - | - | - |
| 1777635619 | 20° C | 24% | 1008.7 hPa | - | - | - | - |
| 1777635014 | 20° C | 24% | 1008.8 hPa | - | - | - | - |
| 1777634409 | 20.56° C | 24% | 1008.6 hPa | - | - | - | - |
| 1777633805 | 20.56° C | 24% | 1008.8 hPa | - | - | - | - |
| 1777633200 | 20.56° C | 20% | 1009 hPa | - | - | - | - |
| 1777632595 | 20° C | 26% | 1009.6 hPa | - | - | - | - |
* Rain since midnight (hover to see other rain measurements)
** Current wind speed in m/s (hover to see current wind gust speed)